Track APRIZESAT 4 now! 10-day predictions APRIZESAT 4 is classified as:
1 35684U 09041D 26249.98177066 .00000383 00000-0 52217-4 0 9992 2 35684 98.1355 326.9099 0044310 57.3358 303.2118 14.83981096923494